Starlink 4078

operational
NORAD ID: 52689 Int'l Des: 2022-053 Owner: SPXS Country: US Constellation: starlink
LEOCIRCULAR

About Starlink 4078

Description loading...

Live Position

Loading 3D Globe...

Upcoming Passes

Altitude History

Altitude vs Time

uPlot chart will show altitude changes over time

Two-Line Element Set

1 52689U 22053AK 25260.08294679 .00029206 00000-0 88889-3 0 9995
2 52689 53.2174 184.4620 0003917 89.8914 270.2538 15.33794567185212
Epoch: Sep 17, 2025 • Age: 15 hours

Current Status

Altitude 484.4 km
Velocity 7.62 km/s
Sub-Earth Point -50.51°S, 171.55°E
Launch Date May 18, 2022
Age 3.3 years
Type internet

Technical Details

Classification Payload
Mass 297.00 kg
Dry Mass 275.00 kg
Total Mass 297.00 kg
Length 0.20 m
Diameter 2.80 m
Span 9.00 m
Shape Box + pan
Manufacturer SPXS
Bus Type Starlink
Phase Status In Orbit
Owner/State SPXS/US

Large Constellations

Loading constellations...